Чекуровка

Россия / Республика Саха (Якутия)     71°02′13″N   127°29′45″E
темп.,
°C
ветер,
м/с
пор.,
м/с
влажн.,
%
обл.,
%
осадки,
мм/ч
давл.,
гПа
погр.,
м
6 мая, чт
чт600:00−2св399292 0.0 1015377
03:00−6св339563 0.0 101539
06:00−6св339221 0.0 101457
09:00−3всв398543 0.0 1014468
12:00−3всв498265 0.0 1014519
15:00−3всв5108476 0.0 1015550
18:00−3всв7138764 0.0 1016499
21:00−5всв5108871 0.0 1016292
7 мая, пт
пт700:00−5всв5991100 0.0 1016351
03:00−5всв489099 0.0 1017361
06:00−4всв498898 0.0 1017430
09:00−3всв4985100 0.0 1017542
12:00−1всв7886100 0.0 1017709
15:00−1всв6887100 0.1 1017757
18:00−2всв6989100 0.0 1018515
21:00−3всв4991100 0.1 1019291
8 мая, сб
сб800:00−5св329598 0.1 101927
03:00−9св329550 0.1 102015
06:00−8св229519 0.0 102131
09:00−5всв22885 0.0 1021156
12:00−4всв238449 0.0 1021378
15:00−3в237988 0.0 1021588
18:00−3в348682 0.0 1021253
21:00−5всв3589100 0.0 1021112
9 мая, вс
вс900:00−11всв329773 0.0 102114
03:00−10всв3296100 0.0 102016
06:00−6всв4890100 0.0 1019285
09:00−4в61087100 0.0 1019482
12:00−3в91287100 0.0 1019631
15:00−2всв91388100 0.0 1019629
18:00−3всв101588100 0.0 1021615
21:00−4всв10168853 0.0 1022523
10 мая, пн
пн1000:00−5всв9168784 0.0 1023493
03:00−6всв8168741 0.0 1025485
06:00−5св8148896 0.0 1026623
09:00−4св8128862 0.0 1028773
12:00−3св8118750 0.0 1029869
15:00−3св7108793 0.1 1029919
18:00−5св6118947 0.0 1031582
21:00−10ссв339537 0.0 103234